DW7214 Weather Reports


time (UTC)temp
C
wind
direction
speed
KPH
gust
KPH
rain 1hr
cm
rain 24hr
cm
rain mn
cm
humidity
%
barometer
mb
20211017153831 8 47 3.2 0.0 0.00 0.00 0.03 100 1002.9
20211017153329 8 47 3.2 0.0 0.00 0.00 0.03 100 1002.9
20211017152840 8 47 1.6 0.0 0.00 0.00 0.03 100 1002.9
20211017152331 8 47 0.0 0.0 0.00 0.00 0.03 100 1002.9
20211017151841 7 47 1.6 0.0 0.00 0.00 0.03 100 1002.7
20211017151332 7 47 4.8 0.0 0.00 0.00 0.03 100 1002.7
20211017150849 7 47 3.2 0.0 0.00 0.00 0.03 100 1002.7
20211017150331 7 47 0.0 0.0 0.00 0.00 0.03 100 1002.8
20211017145841 7 47 0.0 0.0 0.00 0.00 0.03 100 1002.8
20211017145332 7 47 1.6 0.0 0.00 0.00 0.03 100 1002.8
20211017144827 7 47 1.6 0.0 0.00 0.00 0.03 100 1002.9
20211017144338 7 47 1.6 0.0 0.00 0.00 0.03 100 1002.9
20211017143848 7 47 0.0 0.0 0.00 0.00 0.03 100 1002.9
20211017143341 7 47 0.0 0.0 0.00 0.00 0.03 100 1003.1
20211017142832 7 47 0.0 0.0 0.00 0.00 0.03 100 1003.1
20211017142343 7 47 0.0 0.0 0.00 0.00 0.03 100 1003.1
20211017141834 7 47 0.0 0.0 0.00 0.00 0.03 100 1003.4
20211017141345 7 47 0.0 0.0 0.00 0.00 0.03 100 1003.4
20211017140843 7 47 0.0 0.0 0.00 0.00 0.03 100 1003.4
20211017140342 7 47 0.0 0.0 0.00 0.00 0.03 100 1003.3
20211017135837 7 47 0.0 0.0 0.00 0.00 0.03 100 1003.3
20211017135328 7 47 0.0 0.0 0.00 0.00 0.03 100 1003.3
20211017134839 7 47 0.0 0.0 0.00 0.00 0.03 100 1003.3
20211017134330 7 47 0.0 0.0 0.00 0.00 0.03 100 1003.3
20211017133840 7 47 0.0 0.0 0.00 0.00 0.03 100 1003.3
20211017133333 7 47 0.0 0.0 0.00 0.00 0.03 100 1003.4
20211017132844 7 47 0.0 0.0 0.00 0.00 0.03 100 1003.4
20211017132335 7 47 1.6 0.0 0.00 0.00 0.00 100 1003.4
20211017131846 7 47 1.6 0.0 0.00 0.00 0.00 100 1003.4
20211017131341 7 47 1.6 0.0 0.00 0.00 0.00 100 1003.4
20211017130900 8 47 0.0 0.0 0.00 0.00 0.00 100 1003.4
20211017130341 8 47 0.0 0.0 0.00 0.00 0.00 100 1003.8
20211017125832 8 47 0.0 0.0 0.00 0.00 0.00 100 1003.8
20211017125343 7 47 0.0 0.0 0.00 0.00 0.00 100 1003.7
20211017124834 7 47 0.0 0.0 0.00 0.00 0.00 100 1003.9
20211017124345 8 47 0.0 0.0 0.00 0.00 0.00 100 1003.9
20211017123831 8 47 0.0 0.0 0.00 0.00 0.00 100 1003.9
20211017123344 8 47 0.0 0.0 0.00 0.00 0.00 100 1003.9
20211017122835 7 47 0.0 0.0 0.00 0.00 0.00 100 1003.9
20211017122330 8 47 0.0 0.0 0.00 0.00 0.00 100 1003.9
20211017121841 8 47 0.0 0.0 0.00 0.00 0.00 100 1004.1
20211017121332 7 47 0.0 0.0 0.00 0.00 0.00 100 1004.1
20211017120851 8 47 0.0 0.0 0.00 0.00 0.00 100 1004.1
20211017120332 8 47 0.0 0.0 0.00 0.00 0.00 100 1004.4
20211017115843 8 47 0.0 0.0 0.00 0.00 0.00 100 1004.4
20211017115334 8 47 0.0 0.0 0.00 0.00 0.00 100 1004.4
20211017114845 8 47 0.0 0.0 0.00 0.00 0.00 100 1004.4
20211017114336 8 47 0.0 0.0 0.00 0.00 0.00 100 1004.4
20211017113848 8 47 0.0 0.0 0.00 0.00 0.00 100 1004.4
20211017113343 8 47 0.0 0.0 0.00 0.00 0.00 100 1004.5
20211017112834 8 47 0.0 0.0 0.00 0.00 0.00 100 1004.5
20211017112345 8 47 0.0 0.0 0.00 0.00 0.00 100 1004.5
20211017111836 8 47 0.0 0.0 0.00 0.00 0.00 100 1004.4
20211017111327 9 47 0.0 0.0 0.00 0.00 0.00 100 1004.5
20211017110845 9 47 0.0 0.0 0.00 0.00 0.00 100 1004.5
20211017110346 9 47 0.0 0.0 0.00 0.00 0.00 100 1005.0
20211017105837 9 47 0.0 0.0 0.00 0.00 0.00 100 1005.0
20211017105332 9 47 0.0 0.0 0.00 0.00 0.00 100 1005.0
20211017104843 9 47 0.0 0.0 0.00 0.00 0.00 100 1005.1
20211017104334 9 47 0.0 0.0 0.00 0.00 0.00 100 1005.1
20211017103843 9 47 0.0 0.0 0.00 0.00 0.00 100 1005.1
20211017103334 9 47 0.0 0.0 0.00 0.00 0.00 100 1005.3
20211017102845 9 47 0.0 0.0 0.00 0.00 0.00 100 1005.3
20211017102336 9 47 0.0 0.0 0.00 0.00 0.00 100 1005.3
20211017101827 9 47 0.0 0.0 0.00 0.00 0.00 100 1005.6
20211017101338 9 47 0.0 0.0 0.00 0.00 0.00 100 1005.6
20211017100841 9 47 0.0 0.0 0.00 0.00 0.00 100 1005.6
20211017100344 9 47 0.0 0.0 0.00 0.00 0.00 100 1005.6
20211017095835 9 47 0.0 0.0 0.00 0.00 0.00 100 1005.6
20211017095346 9 47 0.0 0.0 0.00 0.00 0.00 100 1005.6
20211017094837 9 47 0.0 0.0 0.00 0.00 0.00 100 1005.6
20211017094328 9 47 0.0 0.0 0.00 0.00 0.00 100 1005.6
20211017093838 10 47 0.0 0.0 0.00 0.00 0.00 100 1005.6
20211017093333 9 47 0.0 0.0 0.00 0.00 0.00 100 1005.9
20211017092844 8 47 0.0 0.0 0.00 0.00 0.00 100 1005.9
20211017092335 9 48 0.0 0.0 0.00 0.00 0.00 100 1005.9
20211017091830 9 47 0.0 0.0 0.00 0.00 0.00 100 1006.2
20211017091341 9 47 0.0 0.0 0.00 0.00 0.00 100 1006.2
20211017090900 9 47 0.0 0.0 0.00 0.00 0.00 100 1006.2
20211017090343 9 47 0.0 0.0 0.00 0.00 0.00 100 1006.2
20211017085834 9 48 0.0 0.0 0.00 0.00 0.00 100 1006.2
20211017085345 10 47 0.0 0.0 0.00 0.00 0.00 100 1006.2
20211017084833 10 47 0.0 0.0 0.00 0.00 0.00 100 1006.2
20211017084344 10 47 0.0 0.0 0.00 0.00 0.00 100 1006.2
20211017083833 10 47 0.0 0.0 0.00 0.00 0.00 100 1006.2
20211017083328 10 47 0.0 0.0 0.00 0.00 0.00 100 1006.1
20211017082839 10 47 0.0 0.0 0.00 0.00 0.00 100 1006.1
20211017082330 10 47 0.0 0.0 0.00 0.00 0.00 100 1006.1
20211017081839 10 47 0.0 0.0 0.00 0.00 0.00 100 1006.4
20211017081330 11 47 0.0 0.0 0.00 0.00 0.00 100 1006.5
20211017080850 11 47 0.0 0.0 0.00 0.00 0.00 100 1006.5
20211017080331 11 48 0.0 0.0 0.00 0.00 0.00 100 1006.6
20211017075842 11 47 0.0 0.0 0.00 0.00 0.00 100 1006.6
20211017075333 11 47 0.0 0.0 0.00 0.00 0.00 100 1006.6
20211017074828 11 47 0.0 0.0 0.00 0.00 0.00 100 1006.9
20211017074339 10 47 0.0 0.0 0.00 0.00 0.00 100 1006.8
20211017073847 10 48 0.0 0.0 0.00 0.00 0.00 100 1006.8
20211017073340 11 47 0.0 0.0 0.00 0.00 0.00 100 1007.0
20211017072831 11 47 0.0 0.0 0.00 0.00 0.00 100 1007.0
20211017072342 11 47 0.0 0.0 0.00 0.00 0.00 100 1007.0
20211017071833 11 47 0.0 0.0 0.00 0.00 0.00 100 1007.1
20211017071343 11 47 0.0 0.0 0.00 0.00 0.00 100 1007.1
20211017070901 11 47 0.0 0.0 0.00 0.00 0.00 100 1007.1
20211017070343 11 47 0.0 0.0 0.00 0.00 0.00 100 1007.1
20211017065835 11 47 0.0 0.0 0.00 0.00 0.00 100 1007.1
20211017065346 11 47 0.0 0.0 0.00 0.00 0.00 100 1007.1
20211017064837 11 47 0.0 0.0 0.00 0.00 0.00 100 1007.4
20211017064328 11 47 0.0 0.0 0.00 0.00 0.00 100 1007.4
20211017063837 11 47 0.0 0.0 0.00 0.00 0.00 100 1007.4
20211017063330 11 47 0.0 0.0 0.00 0.00 0.00 100 1007.6
20211017062841 11 47 0.0 0.0 0.00 0.00 0.00 100 1007.6
20211017062332 11 47 0.0 0.0 0.00 0.00 0.00 100 1007.6
20211017061843 11 47 0.0 0.0 0.00 0.00 0.00 100 1007.7
20211017061338 11 47 0.0 0.0 0.00 0.00 0.00 100 1007.7
20211017060857 11 47 0.0 0.0 0.00 0.00 0.00 100 1007.7
20211017060339 11 47 0.0 0.0 0.00 0.00 0.00 100 1007.6
20211017055830 11 47 0.0 0.0 0.00 0.00 0.00 100 1007.6
20211017055341 11 47 0.0 0.0 0.00 0.00 0.00 100 1007.6
20211017054832 11 47 0.0 0.0 0.00 0.00 0.00 100 1007.7
20211017054343 11 47 0.0 0.0 0.00 0.00 0.00 100 1007.7
20211017053831 12 47 0.0 0.0 0.00 0.00 0.00 100 1007.7
20211017053344 12 47 0.0 0.0 0.00 0.00 0.00 100 1007.8
20211017052835 12 47 0.0 0.0 0.00 0.00 0.00 100 1007.8
20211017052330 12 47 0.0 0.0 0.00 0.00 0.00 100 1007.8
20211017051841 12 47 0.0 0.0 0.00 0.00 0.00 100 1007.9
20211017051332 13 47 0.0 0.0 0.00 0.00 0.00 100 1008.0
20211017050851 13 47 0.0 0.0 0.00 0.00 0.00 100 1008.0
20211017050332 13 47 0.0 0.0 0.00 0.00 0.00 100 1008.0
20211017045840 13 48 0.0 0.0 0.00 0.00 0.00 100 1008.0
20211017045331 13 48 0.0 0.0 0.00 0.00 0.00 100 1008.0
20211017044842 13 48 0.0 0.0 0.00 0.00 0.00 100 1008.1
20211017044333 13 47 0.0 0.0 0.00 0.00 0.00 100 1008.1
20211017043847 13 47 0.0 0.0 0.00 0.00 0.00 100 1008.1
20211017043341 13 47 0.0 0.0 0.00 0.00 0.00 100 1008.1
20211017042832 13 47 0.0 0.0 0.00 0.00 0.00 100 1008.1
20211017042343 14 47 0.0 0.0 0.00 0.00 0.00 100 1008.1
20211017041834 14 47 0.0 0.0 0.00 0.00 0.00 100 1008.2
20211017041346 14 48 0.0 0.0 0.00 0.00 0.00 100 1008.2
20211017040846 15 47 0.0 0.0 0.00 0.00 0.00 100 1008.2
20211017040330 15 48 0.0 0.0 0.00 0.00 0.00 100 1008.2
20211017035841 15 47 0.0 0.0 0.00 0.00 0.00 2 1008.2
20211017035336 15 47 0.0 0.0 0.00 0.00 0.00 3 1008.2
20211017034847 15 47 0.0 0.0 0.00 0.00 0.00 3 1008.3
20211017034338 15 47 0.0 0.0 0.00 0.00 0.00 1 1008.3
20211017033845 15 47 0.0 0.0 0.00 0.00 0.00 100 1008.3
20211017033337 15 47 0.0 0.0 0.00 0.00 0.00 100 1008.6
20211017032828 15 47 0.0 0.0 0.00 0.00 0.00 100 1008.6
20211017032339 15 47 0.0 0.0 0.00 0.00 0.00 100 1008.6
20211017031830 15 47 0.0 0.0 0.00 0.00 0.00 100 1008.7
20211017031341 15 47 0.0 0.0 0.00 0.00 0.00 100 1008.7
20211017030843 15 47 0.0 0.0 0.00 0.00 0.00 100 1008.7
20211017030346 15 47 0.0 0.0 0.00 0.00 0.00 100 1008.8
20211017025835 14 47 0.0 0.0 0.00 0.00 0.00 100 1008.8
20211017025341 14 47 0.0 0.0 0.00 0.00 0.00 100 1008.8
20211017024832 14 47 0.0 0.0 0.00 0.00 0.00 100 1009.1
20211017024343 14 47 0.0 0.0 0.00 0.00 0.00 100 1009.1
20211017023946 14 47 0.0 0.0 0.00 0.00 0.00 100 1009.1
20211017023345 14 47 0.0 0.0 0.00 0.00 0.00 100 1009.2
20211017022836 14 47 0.0 0.0 0.00 0.00 0.00 100 1009.2
20211017022347 14 47 0.0 0.0 0.00 0.00 0.00 100 1009.2
20211017021842 14 47 0.0 0.0 0.00 0.00 0.00 100 1009.1
20211017021333 14 48 0.0 0.0 0.00 0.00 0.00 100 1009.1
20211017020851 14 47 0.0 0.0 0.00 0.00 0.00 100 1009.1
20211017020331 14 47 0.0 0.0 0.00 0.00 0.00 100 1009.1
20211017015842 15 48 0.0 0.0 0.00 0.00 0.00 100 1009.1
20211017015333 15 48 0.0 0.0 0.00 0.00 0.00 100 1009.1
20211017014844 15 48 0.0 0.0 0.00 0.00 0.00 100 1009.1
20211017014335 15 47 0.0 0.0 0.00 0.00 0.00 100 1009.1
20211017013843 15 47 0.0 0.0 0.00 0.00 0.00 100 1009.1
20211017013336 15 48 0.0 0.0 0.00 0.00 0.00 6 1009.1
20211017012831 15 47 0.0 0.0 0.00 0.00 0.00 11 1009.1
20211017012342 16 47 0.0 0.0 0.00 0.00 0.00 13 1009.2
20211017011833 16 48 0.0 0.0 0.00 0.00 0.00 13 1009.2
20211017011344 16 47 0.0 0.0 0.00 0.00 0.00 14 1009.2
20211017010843 16 47 0.0 0.0 0.00 0.00 0.00 15 1009.2
20211017010346 16 47 0.0 0.0 0.00 0.00 0.00 16 1009.3
20211017005837 16 47 0.0 0.0 0.00 0.00 0.00 18 1009.3
20211017005328 16 47 0.0 0.0 0.00 0.00 0.00 20 1009.3
20211017004839 16 47 0.0 0.0 0.00 0.00 0.00 21 1009.5
20211017004334 16 47 0.0 0.0 0.00 0.00 0.00 23 1009.5
20211017003841 16 48 0.0 0.0 0.00 0.00 0.00 24 1009.5
20211017003335 16 48 0.0 0.0 0.00 0.00 0.00 28 1009.7
20211017002846 16 47 0.0 0.0 0.00 0.00 0.00 30 1009.7
20211017002337 16 48 0.0 0.0 0.00 0.00 0.00 33 1009.7
20211017001844 17 48 0.0 0.0 0.00 0.00 0.00 35 1009.7
20211017001335 17 48 0.0 0.0 0.00 0.00 0.00 35 1009.7
20211017000854 17 48 0.0 0.0 0.00 0.00 0.00 35 1009.7
20211017000335 17 48 0.0 0.0 0.00 0.00 0.00 35 1009.8
20211016235846 17 48 0.0 0.0 0.00 0.00 0.00 35 1009.8
20211016235338 17 48 0.0 0.0 0.00 0.00 0.00 36 1009.8
20211016234846 17 48 0.0 0.0 0.00 0.00 0.00 35 1010.1
20211016234337 17 48 0.0 0.0 0.00 0.00 0.00 36 1010.1
20211016233843 17 48 0.0 0.0 0.00 0.00 0.00 35 1010.1
20211016233338 17 48 0.0 0.0 0.00 0.00 0.00 34 1010.2
20211016232828 17 48 0.0 0.0 0.00 0.00 0.00 33 1010.2
20211016232339 17 48 1.6 0.0 0.00 0.00 0.00 34 1010.2
20211016231830 17 47 3.2 0.0 0.00 0.00 0.00 32 1010.3
20211016231341 17 48 1.6 0.0 0.00 0.00 0.00 32 1010.3
20211016230843 17 48 1.6 0.0 0.00 0.00 0.00 31 1010.3
20211016230345 17 48 1.6 0.0 0.00 0.00 0.00 32 1010.7
20211016225836 17 48 0.0 0.0 0.00 0.00 0.00 32 1010.7
20211016225347 17 48 0.0 0.0 0.00 0.00 0.00 31 1010.7
20211016224838 17 48 0.0 0.0 0.00 0.00 0.00 32 1010.8
20211016224329 17 48 1.6 0.0 0.00 0.00 0.00 34 1010.8
20211016223839 17 48 1.6 0.0 0.00 0.00 0.00 33 1010.8
20211016223335 17 46 1.6 0.0 0.00 0.00 0.00 33 1011.0
20211016222846 17 38 1.6 0.0 0.00 0.00 0.00 32 1011.0
20211016222341 17 9 0.0 0.0 0.00 0.00 0.00 30 1011.0
20211016221832 17 48 1.6 0.0 0.00 0.00 0.00 29 1011.2
20211016221343 16 48 4.8 0.0 0.00 0.00 0.00 28 1011.2
20211016220842 16 48 6.4 0.0 0.00 0.00 0.00 30 1011.2
20211016220345 16 49 4.8 0.0 0.00 0.00 0.00 29 1011.4
20211016215836 16 46 4.8 0.0 0.00 0.00 0.00 25 1011.4
20211016215347 16 44 6.4 0.0 0.00 0.00 0.00 24 1011.4
20211016214838 16 42 6.4 0.0 0.00 0.00 0.00 21 1011.7
20211016214329 16 42 6.4 0.0 0.00 0.00 0.00 19 1011.7
20211016213841 16 48 4.8 0.0 0.00 0.00 0.00 8 1011.7
20211016213336 16 44 3.2 0.0 0.00 0.00 0.00 100 1012.0
20211016212847 16 44 0.0 0.0 0.00 0.00 0.00 100 1012.0
20211016212337 15 44 3.2 0.0 0.00 0.00 0.00 100 1011.9
20211016211828 14 44 3.2 0.0 0.00 0.00 0.00 100 1012.4
20211016211339 13 49 3.2 0.0 0.00 0.00 0.00 100 1012.4
20211016210856 13 46 3.2 0.0 0.00 0.00 0.00 100 1012.4
20211016210338 12 360 4.8 0.0 0.00 0.00 0.00 100 1012.6
20211016205829 12 345 4.8 0.0 0.00 0.00 0.00 100 1012.6
20211016205340 12 49 3.2 0.0 0.00 0.00 0.00 100 1012.6
20211016204835 12 30 1.6 0.0 0.00 0.00 0.00 100 1013.0
20211016204346 12 31 1.6 0.0 0.00 0.00 0.00 100 1013.0
20211016203833 11 32 1.6 0.0 0.00 0.00 0.00 100 1012.9
20211016203345 11 32 3.2 0.0 0.00 0.00 0.00 100 1013.2
20211016202836 11 32 3.2 0.0 0.00 0.00 0.00 100 1013.2
20211016202347 11 38 1.6 0.0 0.00 0.00 0.00 100 1013.2
20211016201838 11 38 3.2 0.0 0.00 0.00 0.00 100 1013.5
20211016201329 11 38 1.6 0.0 0.00 0.00 0.00 100 1013.5
20211016200847 11 38 1.6 0.0 0.00 0.00 0.00 100 1013.5
20211016200332 10 38 3.2 0.0 0.00 0.00 0.00 100 1013.8
20211016195843 10 38 3.2 0.0 0.00 0.00 0.00 100 1013.8
20211016195334 10 38 3.2 0.0 0.00 0.00 0.00 100 1013.8
20211016194845 10 38 3.2 0.0 0.00 0.00 0.00 100 1013.9
20211016194336 10 39 1.6 0.0 0.00 0.00 0.00 100 1013.9
20211016193846 10 39 1.6 0.0 0.00 0.00 0.00 100 1013.9
20211016193340 10 29 1.6 0.0 0.00 0.00 0.00 100 1014.1
20211016192831 9 28 1.6 0.0 0.00 0.00 0.00 100 1014.1
20211016192342 9 28 3.2 0.0 0.00 0.00 0.00 100 1014.1
20211016191837 8 28 3.2 0.0 0.00 0.00 0.00 100 1014.3
20211016191328 8 28 1.6 0.0 0.00 0.00 0.00 100 1014.3
20211016190847 8 28 1.6 0.0 0.00 0.00 0.00 100 1014.3
20211016190330 8 28 3.2 0.0 0.00 0.00 0.00 100 1014.5
20211016185842 8 36 3.2 0.0 0.00 0.00 0.00 100 1014.5
20211016185333 8 36 3.2 0.0 0.00 0.00 0.00 100 1014.5
20211016184844 8 36 4.8 0.0 0.00 0.00 0.00 100 1014.5
20211016184335 8 36 3.2 0.0 0.00 0.00 0.00 100 1014.5
20211016183843 8 36 3.2 0.0 0.00 0.00 0.00 100 1014.5
20211016183336 8 36 3.2 0.0 0.00 0.00 0.00 100 1014.6
20211016182831 8 37 3.2 0.0 0.00 0.00 0.00 100 1014.6
20211016182342 7 38 3.2 0.0 0.00 0.00 0.00 100 1014.6
20211016181833 7 38 3.2 0.0 0.00 0.00 0.00 100 1014.8
20211016181344 7 36 3.2 0.0 0.00 0.00 0.00 100 1014.8
20211016180844 7 36 3.2 0.0 0.00 0.00 0.00 100 1014.8
20211016180345 7 36 3.2 0.0 0.00 0.00 0.00 100 1014.9
20211016175836 7 34 3.2 0.0 0.00 0.00 0.00 100 1014.9
20211016175347 7 26 3.2 0.0 0.00 0.00 0.00 100 1014.9
20211016174838 7 355 1.6 0.0 0.00 0.00 0.00 100 1015.0
20211016174333 7 340 1.6 0.0 0.00 0.00 0.00 100 1015.0
20211016173839 7 340 1.6 0.0 0.00 0.00 0.00 100 1015.0
20211016173332 7 336 0.0 0.0 0.00 0.00 0.00 100 1015.1
20211016172843 7 333 0.0 0.0 0.00 0.00 0.00 100 1015.1
20211016172334 7 333 0.0 0.0 0.00 0.00 0.00 100 1015.1
20211016171844 7 333 0.0 0.0 0.00 0.00 0.00 100 1015.0
20211016171336 7 333 0.0 0.0 0.00 0.00 0.00 100 1015.0
20211016170855 7 319 0.0 0.0 0.00 0.00 0.00 100 1015.0
20211016170338 7 208 0.0 0.0 0.00 0.00 0.00 100 1015.1
20211016165832 7 207 0.0 0.0 0.00 0.00 0.00 100 1015.1
20211016165344 7 208 0.0 0.0 0.00 0.00 0.00 100 1015.1
20211016164835 6 207 0.0 0.0 0.00 0.00 0.00 100 1015.1
20211016164346 6 207 0.0 0.0 0.00 0.00 0.00 100 1015.1
20211016163834 6 208 0.0 0.0 0.00 0.00 0.00 100 1015.1
20211016163346 6 207 0.0 0.0 0.00 0.00 0.00 100 1015.1
20211016162838 6 208 0.0 0.0 0.00 0.00 0.00 100 1015.1
20211016162329 6 208 0.0 0.0 0.00 0.00 0.00 100 1015.1
20211016161840 6 208 0.0 0.0 0.00 0.00 0.00 100 1015.2
20211016161335 6 208 0.0 0.0 0.00 0.00 0.00 100 1015.2
20211016160855 6 208 0.0 0.0 0.00 0.00 0.00 100 1015.2
20211016160338 6 208 0.0 0.0 0.00 0.00 0.00 100 1015.4
20211016155828 6 208 0.0 0.0 0.00 0.00 0.00 100 1015.4
20211016155340 6 207 0.0 0.0 0.00 0.00 0.00 100 1015.4
20211016154832 6 207 0.0 0.0 0.00 0.00 0.00 100 1015.5
20211016154343 6 208 0.0 0.0 0.00 0.00 0.00 100 1015.5